Regional Weather Roundup
Issued by NWS

Home | Current Version | Previous Version | Text Only | Print | Product List | Glossary Off
Versions: 1 2 3 4 5 6 7 8 9 10 11 12 13 14 15 16 17 18 19 20 21 22 23 24 25 26 27 28 29 30 31 32 33 34 35 36 37 38 39 40 41 42 43 44 45 46 47 48 49 50

000
ASUS45 KABQ 251810
RWRNM
NEW MEXICO REGIONAL WEATHER ROUNDUP
NATIONAL WEATHER SERVICE ALBUQUERQUE NM
1200 PM MDT SUN JUN 25 2017

NOTE: "FAIR" MEANS FEW OR NO CLOUDS BELOW 12,000 FEET AGL WITH NO
       SIGNIFICANT WEATHER OR OBSTRUCTIONS TO VISION.

      THIS PRODUCT IS RELEASED AS TWO VERSIONS.  ONE VERSION NEAR
      THE TOP OF THE HOUR CONTAINING PRELIMINARY DATA FROM ALBUQUERQUE
      AND OTHER STATIONS.  A FINAL VERSION WITH ADDITIONAL DATA IS
      ISSUED ABOUT 10 MINUTES AFTER THE HOUR.

NMZ501-503-504-510>518-251900-
NORTHWEST PLATEAU/NORTHCENTRAL MOUNTAINS

CITY           SKY/WX    TMP DP  RH WIND       PRES   REMARKS
FARMINGTON     FAIR      83  46  27 VRB7      30.24F
6HR MIN TEMP:  59; 6HR MAX TEMP:  83;

LOS ALAMOS     FAIR      72  49  44 S15       30.42F
SANTA FE       FAIR      77  53  43 SE7       30.36F
6HR MIN TEMP:  61; 6HR MAX TEMP:  79;

TAOS           FAIR      73  48  40 SW13        N/A
ANGEL FIRE     FAIR      67  49  51 SW5       30.48F

$$
NMZ402-403-502-505>509-251900-
WESTCENTRAL MOUNTAINS/SOUTHWEST MOUNTAINS

CITY           SKY/WX    TMP DP  RH WIND       PRES   REMARKS
GALLUP         FAIR      90  39  16 W20G30    30.30F
6HR MIN TEMP:  56; 6HR MAX TEMP:  90;

GRANTS         FAIR      83  45  25 SE15G23   30.34F
SILVER CITY    FAIR      79  54  42 SE9       30.32S

$$
NMZ407-409-411-412-251900-
SOUTHERN DESERTS

CITY           SKY/WX    TMP DP  RH WIND       PRES   REMARKS
DEMING         FAIR      85  56  37 S8        30.24S
6HR MIN TEMP:  62; 6HR MAX TEMP:  85;

LAS CRUCES     FAIR      86  56  35 SE9       30.25F
HOLLOMAN AFB   FAIR      89  56  33 S8G20     30.23F
ALAMOGORDO     FAIR      90  55  31 S7G18     30.23F
T OR C         FAIR      83  54  36 SE8       30.25F
6HR MIN TEMP:  61; 6HR MAX TEMP:  84;


$$
NMZ519>523-251900-
CENTRAL VALLEYS/CENTRAL HIGHLANDS

CITY           SKY/WX    TMP DP  RH WIND       PRES   REMARKS
ALBUQUERQUE    FAIR      82  49  31 SW12      30.29F
6HR MIN TEMP:  66; 6HR MAX TEMP:  83;

DOUBLE EAGLE   MOSUNNY   82  50  32 S10       30.33F
MORIARTY ARPT  FAIR      80  53  39 S7        30.37F
6HR MIN TEMP:  54; 6HR MAX TEMP:  81;

CLINES CORNERS PTSUNNY   75  51  43 MISG      30.42F
6HR MIN TEMP:  59; 6HR MAX TEMP:  76;

BELEN          FAIR      85  48  27 S10G17    30.27F
6HR MIN TEMP:  63; 6HR MAX TEMP:  85;

SOCORRO        FAIR      85  52  32 S16       30.26F
6HR MIN TEMP:  60; 6HR MAX TEMP:  85;


$$
NMZ524>526-539-540-251900-
SOUTHCENTRAL MOUNTAINS

CITY           SKY/WX    TMP DP  RH WIND       PRES   REMARKS
RUIDOSO        FAIR      73  55  53 SE5G16    30.44F

$$
NMZ527>531-251900-
NORTHEAST HIGHLANDS/NORTHEAST PLAINS

CITY           SKY/WX    TMP DP  RH WIND       PRES   REMARKS
LAS VEGAS      FAIR      73  55  53 S17G30    30.40F
6HR MIN TEMP:  57; 6HR MAX TEMP:  73;

RATON          CLOUDY    70  57  63 S10       30.35F
6HR MIN TEMP:  57; 6HR MAX TEMP:  71; 6HR PCP:  0.01;

CLAYTON        CLOUDY    68  62  81 S15       30.33F
6HR MIN TEMP:  60; 6HR MAX TEMP:  68; 6HR PCP:  0.17;


$$
NMZ532>537-251900-
EASTCENTRAL PLAINS

CITY           SKY/WX    TMP DP  RH WIND       PRES   REMARKS
SANTA ROSA     CLOUDY    73  61  66 S9        30.33F
TUCUMCARI      PTSUNNY   77  63  61 S15       30.29F
6HR MIN TEMP:  63; 6HR MAX TEMP:  77; 6HR PCP: TRACE;

CANNON AFB     CLOUDY    71  70  98 SE14      30.35S
6HR MIN TEMP:  62; 6HR MAX TEMP:  71; 6HR PCP:  0.01;

CLOVIS AIRPORT CLOUDY    73  63  68 S13       30.34S

$$
NMZ028-029-538-251900-
SOUTHEAST PLAINS

CITY           SKY/WX    TMP DP  RH WIND       PRES   REMARKS
ROSWELL        PTSUNNY   83  60  45 SE10G21   30.25F
6HR MIN TEMP:  71; 6HR MAX TEMP:  85;

ARTESIA        FAIR      84  63  48 S14G25    30.25S
CARLSBAD       FAIR      85  63  47 S16G24    30.22F
6HR MIN TEMP:  72; 6HR MAX TEMP:  85;

HOBBS          CLOUDY    77  63  61 VRB7      30.31S


$$



USA.gov is the U.S. government's official web portal to all federal, state and local government web resources and services.